Катэн

Россия / Хабаровский край     47°13′11″N   136°07′24″E
темп.,
°C
ветер,
м/с
пор.,
м/с
влажн.,
%
обл.,
%
осадки,
мм/ч
давл.,
гПа
погр.,
м
8 мая, сб
сб801:00+8зсз1196100 0.2 99113
04:00+7св119735 0.2 99036
07:00+8сз1195100 0.0 991123
10:00+11ююз236994 1.2 992917
13:00+11юв2369100 1.3 994966
16:00+11ссв1172100 1.4 995374
19:00+10св017976 0.3 997110
22:00+8вюв118783 0.5 99814
9 мая, вс
вс901:00+5всв2293100 0.0 99733
04:00+5в2191100 0.0 99631
07:00+6всв1188100 0.0 99859
10:00+9в2474100 0.2 998769
13:00+9св3368100 0.3 999893
16:00+10св4566100 0.4 999958
19:00+9ссв3570100 0.1 1000615
22:00+5сз1195100 0.1 100325
10 мая, пн
пн1001:00+5ссз139798 0.1 1004219
04:00+4сз2397100 0.1 1005332
07:00+3сз2495100 0.0 1007485
10:00+3сз2491100 0.1 1008635
13:00+5ссз3571100 0.1 1009972
16:00+7с3664100 0.1 10091308
19:00+7ссз266788 0.0 10101000
22:00+2сз118689 0.0 101313
11 мая, вт
вт1101:00+1сз119429 0.0 101411
04:00−1ссз119762 0.0 101610
07:00+2сз118826 0.0 1017154
10:00+9сз115721 0.0 1017910
13:00+11сз2148100 0.0 10161668
16:00+11вюв1148100 0.0 10161288
19:00+10юв1160100 0.0 101711
22:00+6ююв117445 0.0 101810
12 мая, ср
ср1201:00+4ю11825 0.0 101910
04:00+3ююв22875 0.0 102035
07:00+5ююв237498 0.0 1019118
10:00+12ю3548100 0.0 10161075
13:00+15ююз4642100 0.0 10141535
16:00+15ююз3639100 0.0 10121723
19:00+12ююз2757100 0.0 1011188
22:00+9юв2388100 0.4 101275